COSMOS 1812

Last updated on Tue Sep 16 2025 00:02:14 GMT+0000 (Coordinated Universal Time)

1 17295U 87003A 25258.62918811 .00055461 00000+0 66296-3 0 9992 2 17295 82.4938 26.2222 0001902 21.1048 339.0287 15.60783571116850
UTC large
Height (km)
Speed (km/s)
/
Latitude / Longitude
Inclination (degrees)
Orbital Period (minutes)
Azimuth
Elevation
Range (km)
Doppler Factor

Next 0 passes for location: London (51.5072 / 0.1276)

Sorry there are no passes over London.